• In Slovakia
  • List of Countries
  • For 7 days
  • Water Temperature
  • Satellite Maps
  • Weather Map
  • Weather Widgets
  • user-avatar
    Login

    Hourly Weather Comayagua

    Today, 24 February, Saturday

    Time Temperature Precipitation Wind Pressure Humidity
    00:00 +20°C° 0 mm 1 mps 710 mmHg 96%
    01:00 +20°C° 0 mm 1 mps 710 mmHg 96%
    02:00 +20°C° 0 mm 1 mps 710 mmHg 96%
    03:00 +19°C° 0 mm 1 mps 709 mmHg 96%
    04:00 +19°C° 0 mm 1 mps 709 mmHg 96%
    05:00 +19°C° 0 mm 1 mps 710 mmHg 96%
    06:00 +19°C° 0 mm 1 mps 710 mmHg 96%
    07:00 +21°C° 0 mm 1 mps 710 mmHg 84%
    08:00 +23°C° 0 mm 1 mps 711 mmHg 72%
    09:00 +26°C° 0 mm 1 mps 711 mmHg 59%
    10:00 +28°C° 0 mm 2 mps 711 mmHg 50%
    11:00 +30°C° 0 mm 2 mps 711 mmHg 41%
    12:00 +32°C° 0 mm 2 mps 711 mmHg 32%
    13:00 +32°C° 0 mm 2 mps 710 mmHg 31%
    14:00 +34°C° 0 mm 2 mps 709 mmHg 30%
    15:00 +34°C° 0 mm 2 mps 708 mmHg 30%
    16:00 +31°C° 0 mm 2 mps 708 mmHg 37%
    17:00 +28°C° 0 mm 2 mps 708 mmHg 44%
    18:00 +26°C° 0 mm 1 mps 708 mmHg 51%
    19:00 +25°C° 0 mm 1 mps 709 mmHg 60%
    20:00 +23°C° 0 mm 1 mps 709 mmHg 68%
    21:00 +22°C° 0 mm 1 mps 710 mmHg 77%
    22:00 +21°C° 0 mm 1 mps 710 mmHg 80%
    23:00 +21°C° 0 mm 1 mps 710 mmHg 84%

    Tomorrow, 25 February, Sunday

    Time Temperature Precipitation Wind Pressure Humidity
    00:00 +20°C° 0 mm 1 mps 710 mmHg 87%
    01:00 +20°C° 0 mm 1 mps 709 mmHg 88%
    02:00 +20°C° 0 mm 1 mps 709 mmHg 90%
    03:00 +19°C° 0 mm 1 mps 709 mmHg 91%
    04:00 +19°C° 0 mm 1 mps 709 mmHg 92%
    05:00 +19°C° 0 mm 1 mps 709 mmHg 92%
    06:00 +18°C° 0 mm 1 mps 709 mmHg 92%
    07:00 +21°C° 0 mm 1 mps 710 mmHg 79%
    08:00 +24°C° 0 mm 1 mps 711 mmHg 65%
    09:00 +27°C° 0 mm 1 mps 711 mmHg 52%
    10:00 +29°C° 0 mm 1 mps 711 mmHg 44%
    11:00 +31°C° 0 mm 2 mps 711 mmHg 36%
    12:00 +35°C° 0 mm 2 mps 711 mmHg 29%
    13:00 +34°C° 0 mm 2 mps 710 mmHg 29%
    14:00 +34°C° 0 mm 2 mps 709 mmHg 29%
    15:00 +32°C° 0 mm 1 mps 708 mmHg 30%
    16:00 +30°C° 0.1 mm 1 mps 708 mmHg 36%
    17:00 +28°C° 0.1 mm 1 mps 709 mmHg 42%
    18:00 +26°C° 0.1 mm 1 mps 709 mmHg 48%
    19:00 +24°C° 0.1 mm 1 mps 709 mmHg 55%
    20:00 +21°C° 0.1 mm 0 mps 710 mmHg 62%
    21:00 +20°C° 0.1 mm 0 mps 710 mmHg 69%
    22:00 +21°C° 0 mm 1 mps 710 mmHg 71%
    23:00 +21°C° 0 mm 1 mps 710 mmHg 73%

    Day after tomorrow, 26 February, Monday

    Time Temperature Precipitation Wind Pressure Humidity
    00:00 +20°C° 0 mm 1 mps 710 mmHg 76%
    01:00 +20°C° 0 mm 1 mps 710 mmHg 79%
    02:00 +19°C° 0 mm 1 mps 709 mmHg 82%
    03:00 +19°C° 0 mm 1 mps 709 mmHg 84%
    04:00 +19°C° 0 mm 1 mps 709 mmHg 86%
    05:00 +19°C° 0 mm 1 mps 710 mmHg 88%
    06:00 +19°C° 0 mm 1 mps 710 mmHg 90%
    07:00 +21°C° 0 mm 1 mps 711 mmHg 78%
    08:00 +24°C° 0 mm 1 mps 711 mmHg 66%
    09:00 +27°C° 0 mm 1 mps 712 mmHg 54%
    10:00 +29°C° 0 mm 1 mps 712 mmHg 45%
    11:00 +31°C° 0 mm 2 mps 711 mmHg 36%
    12:00 +34°C° 0 mm 2 mps 711 mmHg 26%
    13:00 +34°C° 0 mm 2 mps 710 mmHg 25%
    14:00 +35°C° 0 mm 2 mps 710 mmHg 24%
    15:00 +35°C° 0 mm 2 mps 709 mmHg 22%
    16:00 +31°C° 0 mm 2 mps 709 mmHg 29%
    17:00 +29°C° 0 mm 2 mps 709 mmHg 36%
    18:00 +26°C° 0 mm 1 mps 709 mmHg 43%
    19:00 +24°C° 0 mm 1 mps 710 mmHg 53%
    20:00 +23°C° 0 mm 1 mps 710 mmHg 63%
    21:00 +21°C° 0 mm 1 mps 711 mmHg 73%
    22:00 +21°C° 0 mm 1 mps 711 mmHg 77%
    23:00 +20°C° 0 mm 1 mps 710 mmHg 81%

    27 February, Tuesday

    Time Temperature Precipitation Wind Pressure Humidity
    00:00 +20°C° 0 mm 1 mps 710 mmHg 86%
    01:00 +19°C° 0 mm 1 mps 710 mmHg 88%
    02:00 +19°C° 0 mm 1 mps 710 mmHg 91%
    03:00 +19°C° 0 mm 1 mps 709 mmHg 94%
    04:00 +19°C° 0 mm 1 mps 710 mmHg 94%
    05:00 +19°C° 0 mm 1 mps 710 mmHg 94%
    06:00 +19°C° 0 mm 1 mps 710 mmHg 95%
    07:00 +21°C° 0 mm 1 mps 711 mmHg 83%
    08:00 +24°C° 0 mm 1 mps 712 mmHg 71%
    09:00 +26°C° 0 mm 1 mps 712 mmHg 60%
    10:00 +28°C° 0 mm 2 mps 712 mmHg 51%
    11:00 +30°C° 0 mm 2 mps 711 mmHg 43%
    12:00 +33°C° 0 mm 3 mps 711 mmHg 34%
    13:00 +33°C° 0 mm 3 mps 710 mmHg 34%
    14:00 +33°C° 0 mm 3 mps 709 mmHg 33%
    15:00 +33°C° 0 mm 3 mps 709 mmHg 33%
    16:00 +30°C° 0 mm 3 mps 709 mmHg 41%
    17:00 +28°C° 0 mm 2 mps 709 mmHg 50%
    18:00 +26°C° 0 mm 2 mps 709 mmHg 59%
    19:00 +24°C° 0.1 mm 2 mps 709 mmHg 69%
    20:00 +23°C° 0.1 mm 1 mps 710 mmHg 78%
    21:00 +21°C° 0.1 mm 1 mps 710 mmHg 88%
    22:00 +21°C° 0.2 mm 1 mps 710 mmHg 90%
    23:00 +21°C° 0.2 mm 1 mps 710 mmHg 92%

    28 February, Wednesday

    Time Temperature Precipitation Wind Pressure Humidity
    00:00 +21°C° 0.2 mm 1 mps 710 mmHg 94%
    01:00 +21°C° 0 mm 1 mps 709 mmHg 95%
    02:00 +20°C° 0 mm 1 mps 709 mmHg 95%
    03:00 +20°C° 0 mm 1 mps 709 mmHg 95%
    04:00 +20°C° 0 mm 1 mps 709 mmHg 95%
    05:00 +20°C° 0 mm 1 mps 709 mmHg 95%
    06:00 +20°C° 0 mm 1 mps 709 mmHg 96%
    07:00 +22°C° 0 mm 1 mps 710 mmHg 85%
    08:00 +24°C° 0 mm 1 mps 710 mmHg 74%
    09:00 +26°C° 0 mm 1 mps 711 mmHg 63%
    10:00 +29°C° 0 mm 1 mps 710 mmHg 52%
    11:00 +31°C° 0 mm 2 mps 710 mmHg 40%
    12:00 +34°C° 0 mm 2 mps 709 mmHg 29%
    13:00 +35°C° 0 mm 2 mps 709 mmHg 27%
    14:00 +35°C° 0 mm 2 mps 708 mmHg 26%
    15:00 +35°C° 0 mm 2 mps 707 mmHg 25%
    16:00 +32°C° 0 mm 2 mps 707 mmHg 32%
    17:00 +29°C° 0 mm 1 mps 707 mmHg 38%
    18:00 +27°C° 0 mm 1 mps 707 mmHg 45%
    19:00 +25°C° 0 mm 1 mps 708 mmHg 54%
    20:00 +24°C° 0 mm 1 mps 708 mmHg 63%
    21:00 +20°C° 0 mm 0 mps 709 mmHg 72%
    22:00 +22°C° 0 mm 1 mps 709 mmHg 75%
    23:00 +21°C° 0 mm 1 mps 708 mmHg 79%

    1 March, Thursday

    Time Temperature Precipitation Wind Pressure Humidity
    00:00 +21°C° 0 mm 1 mps 708 mmHg 82%
    01:00 +21°C° 0 mm 1 mps 708 mmHg 84%
    02:00 +20°C° 0 mm 1 mps 708 mmHg 86%
    03:00 +20°C° 0 mm 1 mps 708 mmHg 88%
    04:00 +20°C° 0 mm 1 mps 708 mmHg 89%
    05:00 +20°C° 0 mm 1 mps 708 mmHg 90%
    06:00 +19°C° 0 mm 1 mps 708 mmHg 91%
    07:00 +22°C° 0 mm 1 mps 709 mmHg 79%
    08:00 +25°C° 0 mm 1 mps 710 mmHg 67%
    09:00 +28°C° 0 mm 1 mps 710 mmHg 55%
    10:00 +30°C° 0 mm 1 mps 710 mmHg 46%
    11:00 +32°C° 0 mm 1 mps 710 mmHg 37%
    12:00 +36°C° 0 mm 2 mps 710 mmHg 28%
    13:00 +36°C° 0 mm 2 mps 709 mmHg 27%
    14:00 +36°C° 0 mm 2 mps 708 mmHg 26%
    15:00 +36°C° 0 mm 2 mps 707 mmHg 25%
    16:00 +32°C° 0 mm 2 mps 707 mmHg 30%
    17:00 +30°C° 0 mm 2 mps 707 mmHg 36%
    18:00 +27°C° 0 mm 1 mps 708 mmHg 42%
    19:00 +26°C° 0 mm 1 mps 708 mmHg 50%
    20:00 +24°C° 0 mm 1 mps 708 mmHg 59%
    21:00 +22°C° 0 mm 1 mps 709 mmHg 67%
    22:00 +21°C° 0 mm 1 mps 709 mmHg 71%
    23:00 +21°C° 0 mm 1 mps 709 mmHg 75%
    Show more